Index of /20260508/WXO-DD/model_rdps/10km/06/004
Name Last modified Size Description
Parent Directory -
20260508T06Z_MSC_RDPS_AbsoluteVorticity_IsbL-0250_RLatLon0.09_PT004H.grib2 2026-05-08 08:40 586K
20260508T06Z_MSC_RDPS_AbsoluteVorticity_IsbL-0500_RLatLon0.09_PT004H.grib2 2026-05-08 08:40 546K
20260508T06Z_MSC_RDPS_AbsoluteVorticity_IsbL-0700_RLatLon0.09_PT004H.grib2 2026-05-08 08:40 615K
20260508T06Z_MSC_RDPS_AbsoluteVorticity_IsbL-0850_RLatLon0.09_PT004H.grib2 2026-05-08 08:40 782K
20260508T06Z_MSC_RDPS_AirTemp_AGL-120m_RLatLon0.09_PT004H.grib2 2026-05-08 08:40 376K
20260508T06Z_MSC_RDPS_AirTemp_AGL-2m_RLatLon0.09_PT004H.grib2 2026-05-08 08:40 627K
20260508T06Z_MSC_RDPS_AirTemp_AGL-40m_RLatLon0.09_PT004H.grib2 2026-05-08 08:40 394K
20260508T06Z_MSC_RDPS_AirTemp_AGL-80m_RLatLon0.09_PT004H.grib2 2026-05-08 08:40 384K
20260508T06Z_MSC_RDPS_AirTemp_IsbL-0001_RLatLon0.09_PT004H.grib2 2026-05-08 08:40 297K
20260508T06Z_MSC_RDPS_AirTemp_IsbL-0005_RLatLon0.09_PT004H.grib2 2026-05-08 08:40 276K
20260508T06Z_MSC_RDPS_AirTemp_IsbL-0010_RLatLon0.09_PT004H.grib2 2026-05-08 08:40 373K
20260508T06Z_MSC_RDPS_AirTemp_IsbL-0020_RLatLon0.09_PT004H.grib2 2026-05-08 08:40 301K
20260508T06Z_MSC_RDPS_AirTemp_IsbL-0030_RLatLon0.09_PT004H.grib2 2026-05-08 08:40 320K
20260508T06Z_MSC_RDPS_AirTemp_IsbL-0050_RLatLon0.09_PT004H.grib2 2026-05-08 08:40 298K
20260508T06Z_MSC_RDPS_AirTemp_IsbL-0100_RLatLon0.09_PT004H.grib2 2026-05-08 08:40 375K
20260508T06Z_MSC_RDPS_AirTemp_IsbL-0150_RLatLon0.09_PT004H.grib2 2026-05-08 08:40 396K
20260508T06Z_MSC_RDPS_AirTemp_IsbL-0175_RLatLon0.09_PT004H.grib2 2026-05-08 08:40 391K
20260508T06Z_MSC_RDPS_AirTemp_IsbL-0200_RLatLon0.09_PT004H.grib2 2026-05-08 08:40 398K
20260508T06Z_MSC_RDPS_AirTemp_IsbL-0225_RLatLon0.09_PT004H.grib2 2026-05-08 08:40 402K
20260508T06Z_MSC_RDPS_AirTemp_IsbL-0250_RLatLon0.09_PT004H.grib2 2026-05-08 08:40 409K
20260508T06Z_MSC_RDPS_AirTemp_IsbL-0275_RLatLon0.09_PT004H.grib2 2026-05-08 08:40 393K
20260508T06Z_MSC_RDPS_AirTemp_IsbL-0300_RLatLon0.09_PT004H.grib2 2026-05-08 08:40 426K
20260508T06Z_MSC_RDPS_AirTemp_IsbL-0350_RLatLon0.09_PT004H.grib2 2026-05-08 08:40 415K
20260508T06Z_MSC_RDPS_AirTemp_IsbL-0400_RLatLon0.09_PT004H.grib2 2026-05-08 08:40 418K
20260508T06Z_MSC_RDPS_AirTemp_IsbL-0450_RLatLon0.09_PT004H.grib2 2026-05-08 08:40 427K
20260508T06Z_MSC_RDPS_AirTemp_IsbL-0500_RLatLon0.09_PT004H.grib2 2026-05-08 08:40 438K
20260508T06Z_MSC_RDPS_AirTemp_IsbL-0550_RLatLon0.09_PT004H.grib2 2026-05-08 08:40 420K
20260508T06Z_MSC_RDPS_AirTemp_IsbL-0600_RLatLon0.09_PT004H.grib2 2026-05-08 08:40 437K
20260508T06Z_MSC_RDPS_AirTemp_IsbL-0650_RLatLon0.09_PT004H.grib2 2026-05-08 08:40 452K
20260508T06Z_MSC_RDPS_AirTemp_IsbL-0700_RLatLon0.09_PT004H.grib2 2026-05-08 08:40 478K
20260508T06Z_MSC_RDPS_AirTemp_IsbL-0750_RLatLon0.09_PT004H.grib2 2026-05-08 08:40 522K
20260508T06Z_MSC_RDPS_AirTemp_IsbL-0800_RLatLon0.09_PT004H.grib2 2026-05-08 08:40 574K
20260508T06Z_MSC_RDPS_AirTemp_IsbL-0850_RLatLon0.09_PT004H.grib2 2026-05-08 08:40 627K
20260508T06Z_MSC_RDPS_AirTemp_IsbL-0875_RLatLon0.09_PT004H.grib2 2026-05-08 08:40 650K
20260508T06Z_MSC_RDPS_AirTemp_IsbL-0900_RLatLon0.09_PT004H.grib2 2026-05-08 08:40 658K
20260508T06Z_MSC_RDPS_AirTemp_IsbL-0925_RLatLon0.09_PT004H.grib2 2026-05-08 08:40 659K
20260508T06Z_MSC_RDPS_AirTemp_IsbL-0950_RLatLon0.09_PT004H.grib2 2026-05-08 08:40 526K
20260508T06Z_MSC_RDPS_AirTemp_IsbL-0970_RLatLon0.09_PT004H.grib2 2026-05-08 08:40 520K
20260508T06Z_MSC_RDPS_AirTemp_IsbL-0985_RLatLon0.09_PT004H.grib2 2026-05-08 08:40 505K
20260508T06Z_MSC_RDPS_AirTemp_IsbL-1000_RLatLon0.09_PT004H.grib2 2026-05-08 08:40 493K
20260508T06Z_MSC_RDPS_AirTemp_IsbL-1015_RLatLon0.09_PT004H.grib2 2026-05-08 08:40 491K
20260508T06Z_MSC_RDPS_Albedo_Sfc_RLatLon0.09_PT004H.grib2 2026-05-08 08:40 157K
20260508T06Z_MSC_RDPS_CAPE_Sfc_RLatLon0.09_PT004H.grib2 2026-05-08 08:40 1.6M
20260508T06Z_MSC_RDPS_CIN_Sfc_RLatLon0.09_PT004H.grib2 2026-05-08 08:40 1.2M
20260508T06Z_MSC_RDPS_CloudWater_EAtm_RLatLon0.09_PT004H.grib2 2026-05-08 08:40 221K
20260508T06Z_MSC_RDPS_ConvectivePrecip-Accum_Sfc_RLatLon0.09_PT004H.grib2 2026-05-08 08:40 422K
20260508T06Z_MSC_RDPS_DewPointDepression_AGL-2m_RLatLon0.09_PT004H.grib2 2026-05-08 08:40 400K
20260508T06Z_MSC_RDPS_DewPointDepression_IsbL-0001_RLatLon0.09_PT004H.grib2 2026-05-08 08:40 193
20260508T06Z_MSC_RDPS_DewPointDepression_IsbL-0005_RLatLon0.09_PT004H.grib2 2026-05-08 08:40 193
20260508T06Z_MSC_RDPS_DewPointDepression_IsbL-0010_RLatLon0.09_PT004H.grib2 2026-05-08 08:40 193
20260508T06Z_MSC_RDPS_DewPointDepression_IsbL-0020_RLatLon0.09_PT004H.grib2 2026-05-08 08:40 193
20260508T06Z_MSC_RDPS_DewPointDepression_IsbL-0030_RLatLon0.09_PT004H.grib2 2026-05-08 08:40 193
20260508T06Z_MSC_RDPS_DewPointDepression_IsbL-0050_RLatLon0.09_PT004H.grib2 2026-05-08 08:40 83K
20260508T06Z_MSC_RDPS_DewPointDepression_IsbL-0100_RLatLon0.09_PT004H.grib2 2026-05-08 08:40 107K
20260508T06Z_MSC_RDPS_DewPointDepression_IsbL-0150_RLatLon0.09_PT004H.grib2 2026-05-08 08:40 134K
20260508T06Z_MSC_RDPS_DewPointDepression_IsbL-0175_RLatLon0.09_PT004H.grib2 2026-05-08 08:40 167K
20260508T06Z_MSC_RDPS_DewPointDepression_IsbL-0200_RLatLon0.09_PT004H.grib2 2026-05-08 08:40 213K
20260508T06Z_MSC_RDPS_DewPointDepression_IsbL-0225_RLatLon0.09_PT004H.grib2 2026-05-08 08:40 250K
20260508T06Z_MSC_RDPS_DewPointDepression_IsbL-0250_RLatLon0.09_PT004H.grib2 2026-05-08 08:40 295K
20260508T06Z_MSC_RDPS_DewPointDepression_IsbL-0275_RLatLon0.09_PT004H.grib2 2026-05-08 08:40 305K
20260508T06Z_MSC_RDPS_DewPointDepression_IsbL-0300_RLatLon0.09_PT004H.grib2 2026-05-08 08:40 321K
20260508T06Z_MSC_RDPS_DewPointDepression_IsbL-0350_RLatLon0.09_PT004H.grib2 2026-05-08 08:40 319K
20260508T06Z_MSC_RDPS_DewPointDepression_IsbL-0400_RLatLon0.09_PT004H.grib2 2026-05-08 08:40 322K
20260508T06Z_MSC_RDPS_DewPointDepression_IsbL-0450_RLatLon0.09_PT004H.grib2 2026-05-08 08:40 328K
20260508T06Z_MSC_RDPS_DewPointDepression_IsbL-0500_RLatLon0.09_PT004H.grib2 2026-05-08 08:40 332K
20260508T06Z_MSC_RDPS_DewPointDepression_IsbL-0550_RLatLon0.09_PT004H.grib2 2026-05-08 08:40 343K
20260508T06Z_MSC_RDPS_DewPointDepression_IsbL-0600_RLatLon0.09_PT004H.grib2 2026-05-08 08:40 360K
20260508T06Z_MSC_RDPS_DewPointDepression_IsbL-0650_RLatLon0.09_PT004H.grib2 2026-05-08 08:40 369K
20260508T06Z_MSC_RDPS_DewPointDepression_IsbL-0700_RLatLon0.09_PT004H.grib2 2026-05-08 08:40 381K
20260508T06Z_MSC_RDPS_DewPointDepression_IsbL-0750_RLatLon0.09_PT004H.grib2 2026-05-08 08:40 406K
20260508T06Z_MSC_RDPS_DewPointDepression_IsbL-0800_RLatLon0.09_PT004H.grib2 2026-05-08 08:40 448K
20260508T06Z_MSC_RDPS_DewPointDepression_IsbL-0850_RLatLon0.09_PT004H.grib2 2026-05-08 08:40 476K
20260508T06Z_MSC_RDPS_DewPointDepression_IsbL-0875_RLatLon0.09_PT004H.grib2 2026-05-08 08:40 473K
20260508T06Z_MSC_RDPS_DewPointDepression_IsbL-0900_RLatLon0.09_PT004H.grib2 2026-05-08 08:40 459K
20260508T06Z_MSC_RDPS_DewPointDepression_IsbL-0925_RLatLon0.09_PT004H.grib2 2026-05-08 08:40 446K
20260508T06Z_MSC_RDPS_DewPointDepression_IsbL-0950_RLatLon0.09_PT004H.grib2 2026-05-08 08:40 441K
20260508T06Z_MSC_RDPS_DewPointDepression_IsbL-0970_RLatLon0.09_PT004H.grib2 2026-05-08 08:40 438K
20260508T06Z_MSC_RDPS_DewPointDepression_IsbL-0985_RLatLon0.09_PT004H.grib2 2026-05-08 08:40 433K
20260508T06Z_MSC_RDPS_DewPointDepression_IsbL-1000_RLatLon0.09_PT004H.grib2 2026-05-08 08:40 429K
20260508T06Z_MSC_RDPS_DewPointDepression_IsbL-1015_RLatLon0.09_PT004H.grib2 2026-05-08 08:40 418K
20260508T06Z_MSC_RDPS_DewPoint_AGL-2m_RLatLon0.09_PT004H.grib2 2026-05-08 08:40 398K
20260508T06Z_MSC_RDPS_DownwardLongwaveRadiationFlux-Accum_Sfc_RLatLon0.09_PT004H.grib2 2026-05-08 08:40 495K
20260508T06Z_MSC_RDPS_DownwardShortwaveRadiationFlux-Accum_NTAtm_RLatLon0.09_PT004H.grib2 2026-05-08 08:40 71K
20260508T06Z_MSC_RDPS_DownwardShortwaveRadiationFlux-Accum_Sfc_RLatLon0.09_PT004H.grib2 2026-05-08 08:40 211K
20260508T06Z_MSC_RDPS_FreezingRain-Accum1h_Sfc_RLatLon0.09_PT004H.grib2 2026-05-08 08:40 31K
20260508T06Z_MSC_RDPS_FreezingRain-Accum_Sfc_RLatLon0.09_PT004H.grib2 2026-05-08 08:40 57K
20260508T06Z_MSC_RDPS_GeopotentialHeight_IsbL-0001_RLatLon0.09_PT004H.grib2 2026-05-08 08:40 236K
20260508T06Z_MSC_RDPS_GeopotentialHeight_IsbL-0005_RLatLon0.09_PT004H.grib2 2026-05-08 08:40 334K
20260508T06Z_MSC_RDPS_GeopotentialHeight_IsbL-0010_RLatLon0.09_PT004H.grib2 2026-05-08 08:40 335K
20260508T06Z_MSC_RDPS_GeopotentialHeight_IsbL-0020_RLatLon0.09_PT004H.grib2 2026-05-08 08:40 302K
20260508T06Z_MSC_RDPS_GeopotentialHeight_IsbL-0030_RLatLon0.09_PT004H.grib2 2026-05-08 08:40 303K
20260508T06Z_MSC_RDPS_GeopotentialHeight_IsbL-0050_RLatLon0.09_PT004H.grib2 2026-05-08 08:40 305K
20260508T06Z_MSC_RDPS_GeopotentialHeight_IsbL-0100_RLatLon0.09_PT004H.grib2 2026-05-08 08:40 283K
20260508T06Z_MSC_RDPS_GeopotentialHeight_IsbL-0150_RLatLon0.09_PT004H.grib2 2026-05-08 08:40 226K
20260508T06Z_MSC_RDPS_GeopotentialHeight_IsbL-0175_RLatLon0.09_PT004H.grib2 2026-05-08 08:40 229K
20260508T06Z_MSC_RDPS_GeopotentialHeight_IsbL-0200_RLatLon0.09_PT004H.grib2 2026-05-08 08:40 263K
20260508T06Z_MSC_RDPS_GeopotentialHeight_IsbL-0225_RLatLon0.09_PT004H.grib2 2026-05-08 08:40 264K
20260508T06Z_MSC_RDPS_GeopotentialHeight_IsbL-0250_RLatLon0.09_PT004H.grib2 2026-05-08 08:40 265K
20260508T06Z_MSC_RDPS_GeopotentialHeight_IsbL-0275_RLatLon0.09_PT004H.grib2 2026-05-08 08:40 265K
20260508T06Z_MSC_RDPS_GeopotentialHeight_IsbL-0300_RLatLon0.09_PT004H.grib2 2026-05-08 08:40 234K
20260508T06Z_MSC_RDPS_GeopotentialHeight_IsbL-0350_RLatLon0.09_PT004H.grib2 2026-05-08 08:40 231K
20260508T06Z_MSC_RDPS_GeopotentialHeight_IsbL-0400_RLatLon0.09_PT004H.grib2 2026-05-08 08:40 226K
20260508T06Z_MSC_RDPS_GeopotentialHeight_IsbL-0450_RLatLon0.09_PT004H.grib2 2026-05-08 08:40 294K
20260508T06Z_MSC_RDPS_GeopotentialHeight_IsbL-0500_RLatLon0.09_PT004H.grib2 2026-05-08 08:40 288K
20260508T06Z_MSC_RDPS_GeopotentialHeight_IsbL-0550_RLatLon0.09_PT004H.grib2 2026-05-08 08:40 284K
20260508T06Z_MSC_RDPS_GeopotentialHeight_IsbL-0600_RLatLon0.09_PT004H.grib2 2026-05-08 08:40 282K
20260508T06Z_MSC_RDPS_GeopotentialHeight_IsbL-0650_RLatLon0.09_PT004H.grib2 2026-05-08 08:40 251K
20260508T06Z_MSC_RDPS_GeopotentialHeight_IsbL-0700_RLatLon0.09_PT004H.grib2 2026-05-08 08:40 250K
20260508T06Z_MSC_RDPS_GeopotentialHeight_IsbL-0750_RLatLon0.09_PT004H.grib2 2026-05-08 08:40 334K
20260508T06Z_MSC_RDPS_GeopotentialHeight_IsbL-0800_RLatLon0.09_PT004H.grib2 2026-05-08 08:40 343K
20260508T06Z_MSC_RDPS_GeopotentialHeight_IsbL-0850_RLatLon0.09_PT004H.grib2 2026-05-08 08:40 386K
20260508T06Z_MSC_RDPS_GeopotentialHeight_IsbL-0875_RLatLon0.09_PT004H.grib2 2026-05-08 08:40 389K
20260508T06Z_MSC_RDPS_GeopotentialHeight_IsbL-0900_RLatLon0.09_PT004H.grib2 2026-05-08 08:40 391K
20260508T06Z_MSC_RDPS_GeopotentialHeight_IsbL-0925_RLatLon0.09_PT004H.grib2 2026-05-08 08:40 394K
20260508T06Z_MSC_RDPS_GeopotentialHeight_IsbL-0950_RLatLon0.09_PT004H.grib2 2026-05-08 08:40 398K
20260508T06Z_MSC_RDPS_GeopotentialHeight_IsbL-0970_RLatLon0.09_PT004H.grib2 2026-05-08 08:40 403K
20260508T06Z_MSC_RDPS_GeopotentialHeight_IsbL-0985_RLatLon0.09_PT004H.grib2 2026-05-08 08:40 412K
20260508T06Z_MSC_RDPS_GeopotentialHeight_IsbL-1000_RLatLon0.09_PT004H.grib2 2026-05-08 08:40 425K
20260508T06Z_MSC_RDPS_GeopotentialHeight_IsbL-1015_RLatLon0.09_PT004H.grib2 2026-05-08 08:40 441K
20260508T06Z_MSC_RDPS_HighLowPressure_MSL_RLatLon0.09_PT004H.json 2026-05-08 08:33 20K
20260508T06Z_MSC_RDPS_Humidex_Sfc_RLatLon0.09_PT004H.grib2 2026-05-08 08:40 2.4M
20260508T06Z_MSC_RDPS_IcePellets-Accum1h_Sfc_RLatLon0.09_PT004H.grib2 2026-05-08 08:40 5.6K
20260508T06Z_MSC_RDPS_IcePellets-Accum_Sfc_RLatLon0.09_PT004H.grib2 2026-05-08 08:40 6.3K
20260508T06Z_MSC_RDPS_KIndex_Sfc_RLatLon0.09_PT004H.grib2 2026-05-08 08:40 2.4M
20260508T06Z_MSC_RDPS_LatentHeatNetFlux_Sfc_RLatLon0.09_PT004H.grib2 2026-05-08 08:40 312K
20260508T06Z_MSC_RDPS_LiftedIndex-MU-VT_IsbL-0500_RLatLon0.09_PT004H.grib2 2026-05-08 08:40 2.4M
20260508T06Z_MSC_RDPS_NetLongwaveRadiationFlux-Accum_Sfc_RLatLon0.09_PT004H.grib2 2026-05-08 08:40 634K
20260508T06Z_MSC_RDPS_NetShortwaveRadiationFlux-Accum_Sfc_RLatLon0.09_PT004H.grib2 2026-05-08 08:40 249K
20260508T06Z_MSC_RDPS_PlanetaryBoundaryLayerHeight_Sfc_RLatLon0.09_PT004H.grib2 2026-05-08 08:40 1.0M
20260508T06Z_MSC_RDPS_Precip-Accum1h_Sfc_RLatLon0.09_PT004H.grib2 2026-05-08 08:40 1.2M
20260508T06Z_MSC_RDPS_Precip-Accum_Sfc_RLatLon0.09_PT004H.grib2 2026-05-08 08:40 1.4M
20260508T06Z_MSC_RDPS_PrecipRate_Sfc_RLatLon0.09_PT004H.grib2 2026-05-08 08:40 162K
20260508T06Z_MSC_RDPS_PrecipType-Instant_Sfc_RLatLon0.09_PT004H.grib2 2026-05-08 08:40 571K
20260508T06Z_MSC_RDPS_Pressure-Trend3h_Sfc_RLatLon0.09_PT004H.grib2 2026-05-08 08:40 1.2M
20260508T06Z_MSC_RDPS_Pressure_MSL_RLatLon0.09_PT004H.grib2 2026-05-08 08:40 289K
20260508T06Z_MSC_RDPS_Pressure_PVU-1.5_RLatLon0.09_PT004H.grib2 2026-05-08 08:40 2.5M
20260508T06Z_MSC_RDPS_Pressure_PVU-1_RLatLon0.09_PT004H.grib2 2026-05-08 08:40 2.4M
20260508T06Z_MSC_RDPS_Pressure_PVU-2_RLatLon0.09_PT004H.grib2 2026-05-08 08:40 2.4M
20260508T06Z_MSC_RDPS_Pressure_Sfc_RLatLon0.09_PT004H.grib2 2026-05-08 08:40 498K
20260508T06Z_MSC_RDPS_RadiativeTemp_Sfc_RLatLon0.09_PT004H.grib2 2026-05-08 08:40 304K
20260508T06Z_MSC_RDPS_Rain-Accum1h_Sfc_RLatLon0.09_PT004H.grib2 2026-05-08 08:40 547K
20260508T06Z_MSC_RDPS_Rain-Accum_Sfc_RLatLon0.09_PT004H.grib2 2026-05-08 08:40 1.0M
20260508T06Z_MSC_RDPS_RelativeHumidity_AGL-2m_RLatLon0.09_PT004H.grib2 2026-05-08 08:40 1.0M
20260508T06Z_MSC_RDPS_RelativeHumidity_IsbL-0010_RLatLon0.09_PT004H.grib2 2026-05-08 08:40 599K
20260508T06Z_MSC_RDPS_RelativeHumidity_IsbL-0020_RLatLon0.09_PT004H.grib2 2026-05-08 08:40 652K
20260508T06Z_MSC_RDPS_RelativeHumidity_IsbL-0030_RLatLon0.09_PT004H.grib2 2026-05-08 08:40 628K
20260508T06Z_MSC_RDPS_RelativeHumidity_IsbL-0050_RLatLon0.09_PT004H.grib2 2026-05-08 08:40 354K
20260508T06Z_MSC_RDPS_RelativeHumidity_IsbL-0100_RLatLon0.09_PT004H.grib2 2026-05-08 08:40 271K
20260508T06Z_MSC_RDPS_RelativeHumidity_IsbL-0150_RLatLon0.09_PT004H.grib2 2026-05-08 08:40 401K
20260508T06Z_MSC_RDPS_RelativeHumidity_IsbL-0175_RLatLon0.09_PT004H.grib2 2026-05-08 08:40 456K
20260508T06Z_MSC_RDPS_RelativeHumidity_IsbL-0200_RLatLon0.09_PT004H.grib2 2026-05-08 08:40 529K
20260508T06Z_MSC_RDPS_RelativeHumidity_IsbL-0225_RLatLon0.09_PT004H.grib2 2026-05-08 08:40 598K
20260508T06Z_MSC_RDPS_RelativeHumidity_IsbL-0250_RLatLon0.09_PT004H.grib2 2026-05-08 08:40 663K
20260508T06Z_MSC_RDPS_RelativeHumidity_IsbL-0275_RLatLon0.09_PT004H.grib2 2026-05-08 08:40 690K
20260508T06Z_MSC_RDPS_RelativeHumidity_IsbL-0300_RLatLon0.09_PT004H.grib2 2026-05-08 08:40 730K
20260508T06Z_MSC_RDPS_RelativeHumidity_IsbL-0350_RLatLon0.09_PT004H.grib2 2026-05-08 08:40 743K
20260508T06Z_MSC_RDPS_RelativeHumidity_IsbL-0400_RLatLon0.09_PT004H.grib2 2026-05-08 08:40 759K
20260508T06Z_MSC_RDPS_RelativeHumidity_IsbL-0450_RLatLon0.09_PT004H.grib2 2026-05-08 08:40 767K
20260508T06Z_MSC_RDPS_RelativeHumidity_IsbL-0500_RLatLon0.09_PT004H.grib2 2026-05-08 08:40 786K
20260508T06Z_MSC_RDPS_RelativeHumidity_IsbL-0550_RLatLon0.09_PT004H.grib2 2026-05-08 08:40 807K
20260508T06Z_MSC_RDPS_RelativeHumidity_IsbL-0600_RLatLon0.09_PT004H.grib2 2026-05-08 08:40 832K
20260508T06Z_MSC_RDPS_RelativeHumidity_IsbL-0650_RLatLon0.09_PT004H.grib2 2026-05-08 08:40 849K
20260508T06Z_MSC_RDPS_RelativeHumidity_IsbL-0700_RLatLon0.09_PT004H.grib2 2026-05-08 08:40 873K
20260508T06Z_MSC_RDPS_RelativeHumidity_IsbL-0750_RLatLon0.09_PT004H.grib2 2026-05-08 08:40 924K
20260508T06Z_MSC_RDPS_RelativeHumidity_IsbL-0800_RLatLon0.09_PT004H.grib2 2026-05-08 08:40 1.0M
20260508T06Z_MSC_RDPS_RelativeHumidity_IsbL-0850_RLatLon0.09_PT004H.grib2 2026-05-08 08:40 1.0M
20260508T06Z_MSC_RDPS_RelativeHumidity_IsbL-0875_RLatLon0.09_PT004H.grib2 2026-05-08 08:40 1.1M
20260508T06Z_MSC_RDPS_RelativeHumidity_IsbL-0900_RLatLon0.09_PT004H.grib2 2026-05-08 08:40 1.1M
20260508T06Z_MSC_RDPS_RelativeHumidity_IsbL-0925_RLatLon0.09_PT004H.grib2 2026-05-08 08:40 1.1M
20260508T06Z_MSC_RDPS_RelativeHumidity_IsbL-0950_RLatLon0.09_PT004H.grib2 2026-05-08 08:40 1.1M
20260508T06Z_MSC_RDPS_RelativeHumidity_IsbL-0970_RLatLon0.09_PT004H.grib2 2026-05-08 08:40 1.1M
20260508T06Z_MSC_RDPS_RelativeHumidity_IsbL-0985_RLatLon0.09_PT004H.grib2 2026-05-08 08:40 1.0M
20260508T06Z_MSC_RDPS_RelativeHumidity_IsbL-1000_RLatLon0.09_PT004H.grib2 2026-05-08 08:40 1.0M
20260508T06Z_MSC_RDPS_RelativeHumidity_IsbL-1015_RLatLon0.09_PT004H.grib2 2026-05-08 08:40 1.0M
20260508T06Z_MSC_RDPS_Runoff-Accum_Sfc_RLatLon0.09_PT004H.grib2 2026-05-08 08:40 20K
20260508T06Z_MSC_RDPS_SWEATIndex_Sfc_RLatLon0.09_PT004H.grib2 2026-05-08 08:40 2.4M
20260508T06Z_MSC_RDPS_SeeingIndex_EAtm_RLatLon0.09_PT004H.grib2 2026-05-08 08:40 1.0M
20260508T06Z_MSC_RDPS_SensibleHeatNetFlux_Sfc_RLatLon0.09_PT004H.grib2 2026-05-08 08:40 212K
20260508T06Z_MSC_RDPS_ShowalterIndex_IsbL-0500_RLatLon0.09_PT004H.grib2 2026-05-08 08:40 2.6M
20260508T06Z_MSC_RDPS_SkyTransparencyIndex_EAtm_RLatLon0.09_PT004H.grib2 2026-05-08 08:40 707K
20260508T06Z_MSC_RDPS_Snow-Accum1h_Sfc_RLatLon0.09_PT004H.grib2 2026-05-08 08:40 477K
20260508T06Z_MSC_RDPS_Snow-Accum_Sfc_RLatLon0.09_PT004H.grib2 2026-05-08 08:40 558K
20260508T06Z_MSC_RDPS_SnowDensity_Sfc_RLatLon0.09_PT004H.grib2 2026-05-08 08:40 165K
20260508T06Z_MSC_RDPS_SnowDepth_Sfc_RLatLon0.09_PT004H.grib2 2026-05-08 08:40 623K
20260508T06Z_MSC_RDPS_SoilTemp_DBS-0to10cm_RLatLon0.09_PT004H.grib2 2026-05-08 08:40 195K
20260508T06Z_MSC_RDPS_SoilTemp_Sfc_RLatLon0.09_PT004H.grib2 2026-05-08 08:40 264K
20260508T06Z_MSC_RDPS_SoilVolumetricIceContent_Sfc_RLatLon0.09_PT004H.grib2 2026-05-08 08:40 147K
20260508T06Z_MSC_RDPS_SoilVolumetricWaterContent_DBS-0to10cm_RLatLon0.09_PT004H.grib2 2026-05-08 08:40 284K
20260508T06Z_MSC_RDPS_SoilVolumetricWaterContent_DBS-0to1cm_RLatLon0.09_PT004H.grib2 2026-05-08 08:40 335K
20260508T06Z_MSC_RDPS_SpecificHumidity_AGL-120m_RLatLon0.09_PT004H.grib2 2026-05-08 08:40 499K
20260508T06Z_MSC_RDPS_SpecificHumidity_AGL-2m_RLatLon0.09_PT004H.grib2 2026-05-08 08:40 665K
20260508T06Z_MSC_RDPS_SpecificHumidity_AGL-40m_RLatLon0.09_PT004H.grib2 2026-05-08 08:40 503K
20260508T06Z_MSC_RDPS_SpecificHumidity_AGL-80m_RLatLon0.09_PT004H.grib2 2026-05-08 08:40 500K
20260508T06Z_MSC_RDPS_SpecificHumidity_IsbL-0001_RLatLon0.09_PT004H.grib2 2026-05-08 08:40 356K
20260508T06Z_MSC_RDPS_SpecificHumidity_IsbL-0005_RLatLon0.09_PT004H.grib2 2026-05-08 08:40 366K
20260508T06Z_MSC_RDPS_SpecificHumidity_IsbL-0010_RLatLon0.09_PT004H.grib2 2026-05-08 08:40 398K
20260508T06Z_MSC_RDPS_SpecificHumidity_IsbL-0020_RLatLon0.09_PT004H.grib2 2026-05-08 08:40 378K
20260508T06Z_MSC_RDPS_SpecificHumidity_IsbL-0030_RLatLon0.09_PT004H.grib2 2026-05-08 08:40 370K
20260508T06Z_MSC_RDPS_SpecificHumidity_IsbL-0050_RLatLon0.09_PT004H.grib2 2026-05-08 08:40 449K
20260508T06Z_MSC_RDPS_SpecificHumidity_IsbL-0100_RLatLon0.09_PT004H.grib2 2026-05-08 08:40 435K
20260508T06Z_MSC_RDPS_SpecificHumidity_IsbL-0150_RLatLon0.09_PT004H.grib2 2026-05-08 08:40 551K
20260508T06Z_MSC_RDPS_SpecificHumidity_IsbL-0175_RLatLon0.09_PT004H.grib2 2026-05-08 08:40 426K
20260508T06Z_MSC_RDPS_SpecificHumidity_IsbL-0200_RLatLon0.09_PT004H.grib2 2026-05-08 08:40 462K
20260508T06Z_MSC_RDPS_SpecificHumidity_IsbL-0225_RLatLon0.09_PT004H.grib2 2026-05-08 08:40 465K
20260508T06Z_MSC_RDPS_SpecificHumidity_IsbL-0250_RLatLon0.09_PT004H.grib2 2026-05-08 08:40 540K
20260508T06Z_MSC_RDPS_SpecificHumidity_IsbL-0275_RLatLon0.09_PT004H.grib2 2026-05-08 08:40 470K
20260508T06Z_MSC_RDPS_SpecificHumidity_IsbL-0300_RLatLon0.09_PT004H.grib2 2026-05-08 08:40 442K
20260508T06Z_MSC_RDPS_SpecificHumidity_IsbL-0350_RLatLon0.09_PT004H.grib2 2026-05-08 08:40 430K
20260508T06Z_MSC_RDPS_SpecificHumidity_IsbL-0400_RLatLon0.09_PT004H.grib2 2026-05-08 08:40 507K
20260508T06Z_MSC_RDPS_SpecificHumidity_IsbL-0450_RLatLon0.09_PT004H.grib2 2026-05-08 08:40 445K
20260508T06Z_MSC_RDPS_SpecificHumidity_IsbL-0500_RLatLon0.09_PT004H.grib2 2026-05-08 08:40 492K
20260508T06Z_MSC_RDPS_SpecificHumidity_IsbL-0550_RLatLon0.09_PT004H.grib2 2026-05-08 08:40 565K
20260508T06Z_MSC_RDPS_SpecificHumidity_IsbL-0600_RLatLon0.09_PT004H.grib2 2026-05-08 08:40 622K
20260508T06Z_MSC_RDPS_SpecificHumidity_IsbL-0650_RLatLon0.09_PT004H.grib2 2026-05-08 08:40 545K
20260508T06Z_MSC_RDPS_SpecificHumidity_IsbL-0700_RLatLon0.09_PT004H.grib2 2026-05-08 08:40 588K
20260508T06Z_MSC_RDPS_SpecificHumidity_IsbL-0750_RLatLon0.09_PT004H.grib2 2026-05-08 08:40 648K
20260508T06Z_MSC_RDPS_SpecificHumidity_IsbL-0800_RLatLon0.09_PT004H.grib2 2026-05-08 08:40 738K
20260508T06Z_MSC_RDPS_SpecificHumidity_IsbL-0850_RLatLon0.09_PT004H.grib2 2026-05-08 08:40 813K
20260508T06Z_MSC_RDPS_SpecificHumidity_IsbL-0875_RLatLon0.09_PT004H.grib2 2026-05-08 08:40 836K
20260508T06Z_MSC_RDPS_SpecificHumidity_IsbL-0900_RLatLon0.09_PT004H.grib2 2026-05-08 08:40 847K
20260508T06Z_MSC_RDPS_SpecificHumidity_IsbL-0925_RLatLon0.09_PT004H.grib2 2026-05-08 08:40 848K
20260508T06Z_MSC_RDPS_SpecificHumidity_IsbL-0950_RLatLon0.09_PT004H.grib2 2026-05-08 08:40 848K
20260508T06Z_MSC_RDPS_SpecificHumidity_IsbL-0970_RLatLon0.09_PT004H.grib2 2026-05-08 08:40 702K
20260508T06Z_MSC_RDPS_SpecificHumidity_IsbL-0985_RLatLon0.09_PT004H.grib2 2026-05-08 08:40 692K
20260508T06Z_MSC_RDPS_SpecificHumidity_IsbL-1000_RLatLon0.09_PT004H.grib2 2026-05-08 08:40 688K
20260508T06Z_MSC_RDPS_SpecificHumidity_IsbL-1015_RLatLon0.09_PT004H.grib2 2026-05-08 08:40 675K
20260508T06Z_MSC_RDPS_SpecificHumidity_Sfc_RLatLon0.09_PT004H.grib2 2026-05-08 08:40 299K
20260508T06Z_MSC_RDPS_StormRelativeHelicity_EtaL-10000_RLatLon0.09_PT004H.grib2 2026-05-08 08:40 1.1M
20260508T06Z_MSC_RDPS_StormSeverityIndex_EtaL-10000_RLatLon0.09_PT004H.grib2 2026-05-08 08:40 1.2M
20260508T06Z_MSC_RDPS_Thickness_IsbL-0850to0700_RLatLon0.09_PT004H.grib2 2026-05-08 08:40 245K
20260508T06Z_MSC_RDPS_Thickness_IsbL-1000to0500_RLatLon0.09_PT004H.grib2 2026-05-08 08:40 193K
20260508T06Z_MSC_RDPS_Thickness_IsbL-1000to0850_RLatLon0.09_PT004H.grib2 2026-05-08 08:40 259K
20260508T06Z_MSC_RDPS_TotalCloudCover_Sfc_RLatLon0.09_PT004H.grib2 2026-05-08 08:40 671K
20260508T06Z_MSC_RDPS_TotalTotalsIndex_Sfc_RLatLon0.09_PT004H.grib2 2026-05-08 08:40 2.4M
20260508T06Z_MSC_RDPS_UVIndex-ClearSky_Sfc_RLatLon0.09_PT004H.grib2 2026-05-08 08:40 99K
20260508T06Z_MSC_RDPS_UVIndex_Sfc_RLatLon0.09_PT004H.grib2 2026-05-08 08:40 221K
20260508T06Z_MSC_RDPS_UpwardLongwaveRadiationFlux_NTAtm_RLatLon0.09_PT004H.grib2 2026-05-08 08:40 485K
20260508T06Z_MSC_RDPS_UpwardShortwaveRadiationFlux_NTAtm_RLatLon0.09_PT004H.grib2 2026-05-08 08:40 214K
20260508T06Z_MSC_RDPS_VerticalVelocity_IsbL-0250_RLatLon0.09_PT004H.grib2 2026-05-08 08:40 569K
20260508T06Z_MSC_RDPS_VerticalVelocity_IsbL-0500_RLatLon0.09_PT004H.grib2 2026-05-08 08:40 527K
20260508T06Z_MSC_RDPS_VerticalVelocity_IsbL-0700_RLatLon0.09_PT004H.grib2 2026-05-08 08:40 585K
20260508T06Z_MSC_RDPS_VerticalVelocity_IsbL-0850_RLatLon0.09_PT004H.grib2 2026-05-08 08:40 694K
20260508T06Z_MSC_RDPS_VerticalWindShear_EtaL-6500_RLatLon0.09_PT004H.grib2 2026-05-08 08:40 1.2M
20260508T06Z_MSC_RDPS_WindChill_Sfc_RLatLon0.09_PT004H.grib2 2026-05-08 08:40 1.2M
20260508T06Z_MSC_RDPS_WindDir_AGL-10m_RLatLon0.09_PT004H.grib2 2026-05-08 08:40 1.0M
20260508T06Z_MSC_RDPS_WindDir_AGL-120m_RLatLon0.09_PT004H.grib2 2026-05-08 08:40 617K
20260508T06Z_MSC_RDPS_WindDir_AGL-40m_RLatLon0.09_PT004H.grib2 2026-05-08 08:40 654K
20260508T06Z_MSC_RDPS_WindDir_AGL-80m_RLatLon0.09_PT004H.grib2 2026-05-08 08:40 632K
20260508T06Z_MSC_RDPS_WindDir_IsbL-0001_RLatLon0.09_PT004H.grib2 2026-05-08 08:40 315K
20260508T06Z_MSC_RDPS_WindDir_IsbL-0005_RLatLon0.09_PT004H.grib2 2026-05-08 08:40 382K
20260508T06Z_MSC_RDPS_WindDir_IsbL-0010_RLatLon0.09_PT004H.grib2 2026-05-08 08:40 362K
20260508T06Z_MSC_RDPS_WindDir_IsbL-0020_RLatLon0.09_PT004H.grib2 2026-05-08 08:40 389K
20260508T06Z_MSC_RDPS_WindDir_IsbL-0030_RLatLon0.09_PT004H.grib2 2026-05-08 08:40 385K
20260508T06Z_MSC_RDPS_WindDir_IsbL-0050_RLatLon0.09_PT004H.grib2 2026-05-08 08:40 432K
20260508T06Z_MSC_RDPS_WindDir_IsbL-0100_RLatLon0.09_PT004H.grib2 2026-05-08 08:40 407K
20260508T06Z_MSC_RDPS_WindDir_IsbL-0150_RLatLon0.09_PT004H.grib2 2026-05-08 08:40 406K
20260508T06Z_MSC_RDPS_WindDir_IsbL-0175_RLatLon0.09_PT004H.grib2 2026-05-08 08:40 432K
20260508T06Z_MSC_RDPS_WindDir_IsbL-0200_RLatLon0.09_PT004H.grib2 2026-05-08 08:40 444K
20260508T06Z_MSC_RDPS_WindDir_IsbL-0225_RLatLon0.09_PT004H.grib2 2026-05-08 08:40 449K
20260508T06Z_MSC_RDPS_WindDir_IsbL-0250_RLatLon0.09_PT004H.grib2 2026-05-08 08:40 448K
20260508T06Z_MSC_RDPS_WindDir_IsbL-0275_RLatLon0.09_PT004H.grib2 2026-05-08 08:40 468K
20260508T06Z_MSC_RDPS_WindDir_IsbL-0300_RLatLon0.09_PT004H.grib2 2026-05-08 08:40 465K
20260508T06Z_MSC_RDPS_WindDir_IsbL-0350_RLatLon0.09_PT004H.grib2 2026-05-08 08:40 487K
20260508T06Z_MSC_RDPS_WindDir_IsbL-0400_RLatLon0.09_PT004H.grib2 2026-05-08 08:40 513K
20260508T06Z_MSC_RDPS_WindDir_IsbL-0450_RLatLon0.09_PT004H.grib2 2026-05-08 08:40 535K
20260508T06Z_MSC_RDPS_WindDir_IsbL-0500_RLatLon0.09_PT004H.grib2 2026-05-08 08:40 557K
20260508T06Z_MSC_RDPS_WindDir_IsbL-0550_RLatLon0.09_PT004H.grib2 2026-05-08 08:40 573K
20260508T06Z_MSC_RDPS_WindDir_IsbL-0600_RLatLon0.09_PT004H.grib2 2026-05-08 08:40 594K
20260508T06Z_MSC_RDPS_WindDir_IsbL-0650_RLatLon0.09_PT004H.grib2 2026-05-08 08:40 633K
20260508T06Z_MSC_RDPS_WindDir_IsbL-0700_RLatLon0.09_PT004H.grib2 2026-05-08 08:40 676K
20260508T06Z_MSC_RDPS_WindDir_IsbL-0750_RLatLon0.09_PT004H.grib2 2026-05-08 08:40 733K
20260508T06Z_MSC_RDPS_WindDir_IsbL-0800_RLatLon0.09_PT004H.grib2 2026-05-08 08:40 798K
20260508T06Z_MSC_RDPS_WindDir_IsbL-0850_RLatLon0.09_PT004H.grib2 2026-05-08 08:40 866K
20260508T06Z_MSC_RDPS_WindDir_IsbL-0875_RLatLon0.09_PT004H.grib2 2026-05-08 08:40 888K
20260508T06Z_MSC_RDPS_WindDir_IsbL-0900_RLatLon0.09_PT004H.grib2 2026-05-08 08:40 906K
20260508T06Z_MSC_RDPS_WindDir_IsbL-0925_RLatLon0.09_PT004H.grib2 2026-05-08 08:40 918K
20260508T06Z_MSC_RDPS_WindDir_IsbL-0950_RLatLon0.09_PT004H.grib2 2026-05-08 08:40 924K
20260508T06Z_MSC_RDPS_WindDir_IsbL-0970_RLatLon0.09_PT004H.grib2 2026-05-08 08:40 934K
20260508T06Z_MSC_RDPS_WindDir_IsbL-0985_RLatLon0.09_PT004H.grib2 2026-05-08 08:40 945K
20260508T06Z_MSC_RDPS_WindDir_IsbL-1000_RLatLon0.09_PT004H.grib2 2026-05-08 08:40 962K
20260508T06Z_MSC_RDPS_WindDir_IsbL-1015_RLatLon0.09_PT004H.grib2 2026-05-08 08:40 1.0M
20260508T06Z_MSC_RDPS_WindGust-Max_AGL-10m_RLatLon0.09_PT004H.grib2 2026-05-08 08:40 1.0M
20260508T06Z_MSC_RDPS_WindGust-Min_AGL-10m_RLatLon0.09_PT004H.grib2 2026-05-08 08:40 960K
20260508T06Z_MSC_RDPS_WindGust_AGL-10m_RLatLon0.09_PT004H.grib2 2026-05-08 08:40 1.0M
20260508T06Z_MSC_RDPS_WindSpeed_AGL-10m_RLatLon0.09_PT004H.grib2 2026-05-08 08:40 838K
20260508T06Z_MSC_RDPS_WindSpeed_AGL-120m_RLatLon0.09_PT004H.grib2 2026-05-08 08:40 539K
20260508T06Z_MSC_RDPS_WindSpeed_AGL-40m_RLatLon0.09_PT004H.grib2 2026-05-08 08:40 671K
20260508T06Z_MSC_RDPS_WindSpeed_AGL-80m_RLatLon0.09_PT004H.grib2 2026-05-08 08:40 669K
20260508T06Z_MSC_RDPS_WindSpeed_IsbL-0001_RLatLon0.09_PT004H.grib2 2026-05-08 08:40 245K
20260508T06Z_MSC_RDPS_WindSpeed_IsbL-0005_RLatLon0.09_PT004H.grib2 2026-05-08 08:40 284K
20260508T06Z_MSC_RDPS_WindSpeed_IsbL-0010_RLatLon0.09_PT004H.grib2 2026-05-08 08:40 380K
20260508T06Z_MSC_RDPS_WindSpeed_IsbL-0020_RLatLon0.09_PT004H.grib2 2026-05-08 08:40 307K
20260508T06Z_MSC_RDPS_WindSpeed_IsbL-0030_RLatLon0.09_PT004H.grib2 2026-05-08 08:40 305K
20260508T06Z_MSC_RDPS_WindSpeed_IsbL-0050_RLatLon0.09_PT004H.grib2 2026-05-08 08:40 435K
20260508T06Z_MSC_RDPS_WindSpeed_IsbL-0100_RLatLon0.09_PT004H.grib2 2026-05-08 08:40 424K
20260508T06Z_MSC_RDPS_WindSpeed_IsbL-0150_RLatLon0.09_PT004H.grib2 2026-05-08 08:40 367K
20260508T06Z_MSC_RDPS_WindSpeed_IsbL-0175_RLatLon0.09_PT004H.grib2 2026-05-08 08:40 415K
20260508T06Z_MSC_RDPS_WindSpeed_IsbL-0200_RLatLon0.09_PT004H.grib2 2026-05-08 08:40 431K
20260508T06Z_MSC_RDPS_WindSpeed_IsbL-0225_RLatLon0.09_PT004H.grib2 2026-05-08 08:40 437K
20260508T06Z_MSC_RDPS_WindSpeed_IsbL-0250_RLatLon0.09_PT004H.grib2 2026-05-08 08:40 439K
20260508T06Z_MSC_RDPS_WindSpeed_IsbL-0275_RLatLon0.09_PT004H.grib2 2026-05-08 08:40 455K
20260508T06Z_MSC_RDPS_WindSpeed_IsbL-0300_RLatLon0.09_PT004H.grib2 2026-05-08 08:40 452K
20260508T06Z_MSC_RDPS_WindSpeed_IsbL-0350_RLatLon0.09_PT004H.grib2 2026-05-08 08:40 462K
20260508T06Z_MSC_RDPS_WindSpeed_IsbL-0400_RLatLon0.09_PT004H.grib2 2026-05-08 08:40 449K
20260508T06Z_MSC_RDPS_WindSpeed_IsbL-0450_RLatLon0.09_PT004H.grib2 2026-05-08 08:40 568K
20260508T06Z_MSC_RDPS_WindSpeed_IsbL-0500_RLatLon0.09_PT004H.grib2 2026-05-08 08:40 570K
20260508T06Z_MSC_RDPS_WindSpeed_IsbL-0550_RLatLon0.09_PT004H.grib2 2026-05-08 08:40 614K
20260508T06Z_MSC_RDPS_WindSpeed_IsbL-0600_RLatLon0.09_PT004H.grib2 2026-05-08 08:40 624K
20260508T06Z_MSC_RDPS_WindSpeed_IsbL-0650_RLatLon0.09_PT004H.grib2 2026-05-08 08:40 647K
20260508T06Z_MSC_RDPS_WindSpeed_IsbL-0700_RLatLon0.09_PT004H.grib2 2026-05-08 08:40 675K
20260508T06Z_MSC_RDPS_WindSpeed_IsbL-0750_RLatLon0.09_PT004H.grib2 2026-05-08 08:40 710K
20260508T06Z_MSC_RDPS_WindSpeed_IsbL-0800_RLatLon0.09_PT004H.grib2 2026-05-08 08:40 759K
20260508T06Z_MSC_RDPS_WindSpeed_IsbL-0850_RLatLon0.09_PT004H.grib2 2026-05-08 08:40 816K
20260508T06Z_MSC_RDPS_WindSpeed_IsbL-0875_RLatLon0.09_PT004H.grib2 2026-05-08 08:40 835K
20260508T06Z_MSC_RDPS_WindSpeed_IsbL-0900_RLatLon0.09_PT004H.grib2 2026-05-08 08:40 849K
20260508T06Z_MSC_RDPS_WindSpeed_IsbL-0925_RLatLon0.09_PT004H.grib2 2026-05-08 08:40 862K
20260508T06Z_MSC_RDPS_WindSpeed_IsbL-0950_RLatLon0.09_PT004H.grib2 2026-05-08 08:40 865K
20260508T06Z_MSC_RDPS_WindSpeed_IsbL-0970_RLatLon0.09_PT004H.grib2 2026-05-08 08:40 859K
20260508T06Z_MSC_RDPS_WindSpeed_IsbL-0985_RLatLon0.09_PT004H.grib2 2026-05-08 08:40 852K
20260508T06Z_MSC_RDPS_WindSpeed_IsbL-1000_RLatLon0.09_PT004H.grib2 2026-05-08 08:40 847K
20260508T06Z_MSC_RDPS_WindSpeed_IsbL-1015_RLatLon0.09_PT004H.grib2 2026-05-08 08:40 837K
20260508T06Z_MSC_RDPS_WindU_AGL-10m_RLatLon0.09_PT004H.grib2 2026-05-08 08:40 433K
20260508T06Z_MSC_RDPS_WindU_AGL-120m_RLatLon0.09_PT004H.grib2 2026-05-08 08:40 537K
20260508T06Z_MSC_RDPS_WindU_AGL-40m_RLatLon0.09_PT004H.grib2 2026-05-08 08:40 540K
20260508T06Z_MSC_RDPS_WindU_AGL-80m_RLatLon0.09_PT004H.grib2 2026-05-08 08:40 538K
20260508T06Z_MSC_RDPS_WindU_IsbL-0001_RLatLon0.09_PT004H.grib2 2026-05-08 08:40 287K
20260508T06Z_MSC_RDPS_WindU_IsbL-0005_RLatLon0.09_PT004H.grib2 2026-05-08 08:40 320K
20260508T06Z_MSC_RDPS_WindU_IsbL-0010_RLatLon0.09_PT004H.grib2 2026-05-08 08:40 285K
20260508T06Z_MSC_RDPS_WindU_IsbL-0020_RLatLon0.09_PT004H.grib2 2026-05-08 08:40 341K
20260508T06Z_MSC_RDPS_WindU_IsbL-0030_RLatLon0.09_PT004H.grib2 2026-05-08 08:40 300K
20260508T06Z_MSC_RDPS_WindU_IsbL-0050_RLatLon0.09_PT004H.grib2 2026-05-08 08:40 364K
20260508T06Z_MSC_RDPS_WindU_IsbL-0100_RLatLon0.09_PT004H.grib2 2026-05-08 08:40 322K
20260508T06Z_MSC_RDPS_WindU_IsbL-0150_RLatLon0.09_PT004H.grib2 2026-05-08 08:40 385K
20260508T06Z_MSC_RDPS_WindU_IsbL-0175_RLatLon0.09_PT004H.grib2 2026-05-08 08:40 408K
20260508T06Z_MSC_RDPS_WindU_IsbL-0200_RLatLon0.09_PT004H.grib2 2026-05-08 08:40 327K
20260508T06Z_MSC_RDPS_WindU_IsbL-0225_RLatLon0.09_PT004H.grib2 2026-05-08 08:40 332K
20260508T06Z_MSC_RDPS_WindU_IsbL-0250_RLatLon0.09_PT004H.grib2 2026-05-08 08:40 332K
20260508T06Z_MSC_RDPS_WindU_IsbL-0275_RLatLon0.09_PT004H.grib2 2026-05-08 08:40 345K
20260508T06Z_MSC_RDPS_WindU_IsbL-0300_RLatLon0.09_PT004H.grib2 2026-05-08 08:40 341K
20260508T06Z_MSC_RDPS_WindU_IsbL-0350_RLatLon0.09_PT004H.grib2 2026-05-08 08:40 448K
20260508T06Z_MSC_RDPS_WindU_IsbL-0400_RLatLon0.09_PT004H.grib2 2026-05-08 08:40 453K
20260508T06Z_MSC_RDPS_WindU_IsbL-0450_RLatLon0.09_PT004H.grib2 2026-05-08 08:40 457K
20260508T06Z_MSC_RDPS_WindU_IsbL-0500_RLatLon0.09_PT004H.grib2 2026-05-08 08:40 461K
20260508T06Z_MSC_RDPS_WindU_IsbL-0550_RLatLon0.09_PT004H.grib2 2026-05-08 08:40 446K
20260508T06Z_MSC_RDPS_WindU_IsbL-0600_RLatLon0.09_PT004H.grib2 2026-05-08 08:40 455K
20260508T06Z_MSC_RDPS_WindU_IsbL-0650_RLatLon0.09_PT004H.grib2 2026-05-08 08:40 475K
20260508T06Z_MSC_RDPS_WindU_IsbL-0700_RLatLon0.09_PT004H.grib2 2026-05-08 08:40 499K
20260508T06Z_MSC_RDPS_WindU_IsbL-0750_RLatLon0.09_PT004H.grib2 2026-05-08 08:40 530K
20260508T06Z_MSC_RDPS_WindU_IsbL-0800_RLatLon0.09_PT004H.grib2 2026-05-08 08:40 574K
20260508T06Z_MSC_RDPS_WindU_IsbL-0850_RLatLon0.09_PT004H.grib2 2026-05-08 08:40 625K
20260508T06Z_MSC_RDPS_WindU_IsbL-0875_RLatLon0.09_PT004H.grib2 2026-05-08 08:40 640K
20260508T06Z_MSC_RDPS_WindU_IsbL-0900_RLatLon0.09_PT004H.grib2 2026-05-08 08:40 651K
20260508T06Z_MSC_RDPS_WindU_IsbL-0925_RLatLon0.09_PT004H.grib2 2026-05-08 08:40 659K
20260508T06Z_MSC_RDPS_WindU_IsbL-0950_RLatLon0.09_PT004H.grib2 2026-05-08 08:40 659K
20260508T06Z_MSC_RDPS_WindU_IsbL-0970_RLatLon0.09_PT004H.grib2 2026-05-08 08:40 656K
20260508T06Z_MSC_RDPS_WindU_IsbL-0985_RLatLon0.09_PT004H.grib2 2026-05-08 08:40 652K
20260508T06Z_MSC_RDPS_WindU_IsbL-1000_RLatLon0.09_PT004H.grib2 2026-05-08 08:40 787K
20260508T06Z_MSC_RDPS_WindU_IsbL-1015_RLatLon0.09_PT004H.grib2 2026-05-08 08:40 827K
20260508T06Z_MSC_RDPS_WindV_AGL-10m_RLatLon0.09_PT004H.grib2 2026-05-08 08:40 427K
20260508T06Z_MSC_RDPS_WindV_AGL-120m_RLatLon0.09_PT004H.grib2 2026-05-08 08:40 532K
20260508T06Z_MSC_RDPS_WindV_AGL-40m_RLatLon0.09_PT004H.grib2 2026-05-08 08:40 536K
20260508T06Z_MSC_RDPS_WindV_AGL-80m_RLatLon0.09_PT004H.grib2 2026-05-08 08:40 534K
20260508T06Z_MSC_RDPS_WindV_IsbL-0001_RLatLon0.09_PT004H.grib2 2026-05-08 08:40 239K
20260508T06Z_MSC_RDPS_WindV_IsbL-0005_RLatLon0.09_PT004H.grib2 2026-05-08 08:40 277K
20260508T06Z_MSC_RDPS_WindV_IsbL-0010_RLatLon0.09_PT004H.grib2 2026-05-08 08:40 286K
20260508T06Z_MSC_RDPS_WindV_IsbL-0020_RLatLon0.09_PT004H.grib2 2026-05-08 08:40 300K
20260508T06Z_MSC_RDPS_WindV_IsbL-0030_RLatLon0.09_PT004H.grib2 2026-05-08 08:40 299K
20260508T06Z_MSC_RDPS_WindV_IsbL-0050_RLatLon0.09_PT004H.grib2 2026-05-08 08:40 328K
20260508T06Z_MSC_RDPS_WindV_IsbL-0100_RLatLon0.09_PT004H.grib2 2026-05-08 08:40 413K
20260508T06Z_MSC_RDPS_WindV_IsbL-0150_RLatLon0.09_PT004H.grib2 2026-05-08 08:40 384K
20260508T06Z_MSC_RDPS_WindV_IsbL-0175_RLatLon0.09_PT004H.grib2 2026-05-08 08:40 407K
20260508T06Z_MSC_RDPS_WindV_IsbL-0200_RLatLon0.09_PT004H.grib2 2026-05-08 08:40 329K
20260508T06Z_MSC_RDPS_WindV_IsbL-0225_RLatLon0.09_PT004H.grib2 2026-05-08 08:40 358K
20260508T06Z_MSC_RDPS_WindV_IsbL-0250_RLatLon0.09_PT004H.grib2 2026-05-08 08:40 358K
20260508T06Z_MSC_RDPS_WindV_IsbL-0275_RLatLon0.09_PT004H.grib2 2026-05-08 08:40 369K
20260508T06Z_MSC_RDPS_WindV_IsbL-0300_RLatLon0.09_PT004H.grib2 2026-05-08 08:40 366K
20260508T06Z_MSC_RDPS_WindV_IsbL-0350_RLatLon0.09_PT004H.grib2 2026-05-08 08:40 347K
20260508T06Z_MSC_RDPS_WindV_IsbL-0400_RLatLon0.09_PT004H.grib2 2026-05-08 08:40 352K
20260508T06Z_MSC_RDPS_WindV_IsbL-0450_RLatLon0.09_PT004H.grib2 2026-05-08 08:40 455K
20260508T06Z_MSC_RDPS_WindV_IsbL-0500_RLatLon0.09_PT004H.grib2 2026-05-08 08:40 458K
20260508T06Z_MSC_RDPS_WindV_IsbL-0550_RLatLon0.09_PT004H.grib2 2026-05-08 08:40 461K
20260508T06Z_MSC_RDPS_WindV_IsbL-0600_RLatLon0.09_PT004H.grib2 2026-05-08 08:40 469K
20260508T06Z_MSC_RDPS_WindV_IsbL-0650_RLatLon0.09_PT004H.grib2 2026-05-08 08:40 487K
20260508T06Z_MSC_RDPS_WindV_IsbL-0700_RLatLon0.09_PT004H.grib2 2026-05-08 08:40 496K
20260508T06Z_MSC_RDPS_WindV_IsbL-0750_RLatLon0.09_PT004H.grib2 2026-05-08 08:40 526K
20260508T06Z_MSC_RDPS_WindV_IsbL-0800_RLatLon0.09_PT004H.grib2 2026-05-08 08:40 570K
20260508T06Z_MSC_RDPS_WindV_IsbL-0850_RLatLon0.09_PT004H.grib2 2026-05-08 08:40 620K
20260508T06Z_MSC_RDPS_WindV_IsbL-0875_RLatLon0.09_PT004H.grib2 2026-05-08 08:40 637K
20260508T06Z_MSC_RDPS_WindV_IsbL-0900_RLatLon0.09_PT004H.grib2 2026-05-08 08:40 649K
20260508T06Z_MSC_RDPS_WindV_IsbL-0925_RLatLon0.09_PT004H.grib2 2026-05-08 08:40 656K
20260508T06Z_MSC_RDPS_WindV_IsbL-0950_RLatLon0.09_PT004H.grib2 2026-05-08 08:40 656K
20260508T06Z_MSC_RDPS_WindV_IsbL-0970_RLatLon0.09_PT004H.grib2 2026-05-08 08:40 793K
20260508T06Z_MSC_RDPS_WindV_IsbL-0985_RLatLon0.09_PT004H.grib2 2026-05-08 08:40 786K
20260508T06Z_MSC_RDPS_WindV_IsbL-1000_RLatLon0.09_PT004H.grib2 2026-05-08 08:40 827K
20260508T06Z_MSC_RDPS_WindV_IsbL-1015_RLatLon0.09_PT004H.grib2 2026-05-08 08:40 819K